Location: ???????
(55.4362°N, 38.1183°E)
Time: 16:51:21
(UTC+00:00)

Cosmos 1842 Rocket - Pass Details

Date: 17 June 2021
Orbit: 606 x 633 km, 82.5° (Epoch: 29 July)

Event Time Altitude Azimuth Distance (km) Brightness Sun altitude
Rises 23:10:43 0° 345° (NNW) 2,880 7.9 -8.2°
Reaches altitude 10° 23:12:58 10° 341° (NNW) 1,971 6.9 -8.1°
Maximum altitude 23:17:13 55° 264° (W) 734 3.8 -7.8°
Drops below altitude 10° 23:21:28 10° 187° (S) 1,962 5.5 -7.6°
Enters shadow 23:21:52 - 186° (S) 2,123 5.7 -7.5°
